Torna al catalogo

NOAA 16 DEB

AttivoPO
NORAD 41507·DEBRIS·🇺🇸 United States

Lanciato Sep 21, 2000 da Vandenberg Space Force Base

Loading…

Prossimi Passaggi (prossime 24 ore)

TLE

AggiornatoSource: Space-Track

Epoca: Sep 14, 2026, 08:40 UTC

1 41507U 00055MF  26257.36169887  .00008823  00000-0  15906-2 0  9991
2 41507  98.9208  90.8239 0010358 161.1527 199.0060 14.66746078 75934

Traccia NOAA 16 DEB in tempo reale con AllMySat

Download on the App Store